Location: Dos Palmas
(32.4468°N, 116.8732°W)
Time: 21:11:08
(UTC+00:00)

N. Korean satellite - Pass Details

Date: 05 December 2022
Orbit: 407 x 442 km, 97.3° (Epoch: 05 February)

Event Time Altitude Azimuth Distance (km) Brightness Sun altitude
Rises 13:44:54 0° 352° (N) 2,498 9.9 -10.5°
Reaches altitude 10° 13:47:23 10° 334° (NNW) 1,609 8.8 -10.0°
Maximum altitude 13:49:51 19° 288° (WNW) 1,163 7.8 -9.5°
Drops below altitude 10° 13:52:17 10° 242° (WSW) 1,580 8.8 -9.0°
Sets 13:54:42 0° 224° (SW) 2,434 9.9 -8.5°
